Regional Weather Roundup
Issued by NWS Cleveland, OH

Home | Current Version | Previous Version | Text Only | Print | Product List | Glossary Off
Versions: 1 2 3 4 5 6 7 8 9 10 11 12 13 14 15 16 17 18 19 20 21 22 23 24 25 26 27 28 29 30 31 32 33 34 35 36 37 38 39 40 41 42 43 44 45 46 47 48 49 50

000
ASUS41 KCLE 171710
RWRCLE
OHIO REGIONAL WEATHER ROUNDUP
NATIONAL WEATHER SERVICE CLEVELAND, OH
100 PM EDT TUE OCT 17 2017

NOTE: "FAIR" INDICATES FEW OR NO CLOUDS BELOW 12,000 FEET WITH NO
SIGNIFICANT WEATHER AND/OR OBSTRUCTIONS TO VISIBILITY.

OHZ001>008-015>018-024>027-034-035-043-044-171800-
   NORTHWEST OHIO

CITY           SKY/WX    TMP DP  RH WIND       PRES   REMARKS
DEFIANCE       SUNNY     63  39  41 W9G21     30.26F
FINDLAY        SUNNY     65  39  38 W16G22    30.27F
TOLEDO EXPRESS SUNNY     65  41  41 SW17G29   30.24F
TOLEDO EXEC    SUNNY     65  41  41 W17G25    30.25F
LIMA           SUNNY     63  41  44 SW13      30.29F HAZE
$$

OHZ009>014-019>023-028>033-038-089-171800-
   NORTHEAST OHIO

CITY           SKY/WX    TMP DP  RH WIND       PRES   REMARKS
CLE-HOPKINS    MOSUNNY   64  40  41 SW10      30.29F
CLE-LAKEFRONT  SUNNY     64  39  39 SW20G25   30.26F
CUY CO. ARPT   SUNNY     64  41  42 SW17      30.28F
LORAIN-ELYRIA  SUNNY     63  36  36 SW14G21   30.28F
ASHTABULA      SUNNY     62  40  44 SW15      30.27F
AKRON-CANTON   SUNNY     61  39  44 SW15G23   30.31F
WOOSTER        SUNNY     62  38  40 W9G18     30.31F
MANSFIELD      SUNNY     62  39  42 SW15      30.30F
YOUNGSTOWN     MOSUNNY   60  39  45 SW14G21   30.29F
$$

OHZ042-051>053-060>062-070>072-077>081-171800-
  SOUTHWEST OHIO

CITY           SKY/WX    TMP DP  RH WIND       PRES   REMARKS
CINC-COVINGTON MOSUNNY   61  41  47 SW9       30.36F
CINC-LUNKEN    SUNNY     63  42  46 S10       30.36F
HAMILTON       SUNNY     64  40  41 VRB5      30.36F
DAYTON         MOSUNNY   61  40  45 SW13      30.34F
WRIGHT-PAT AFB SUNNY     62  36  37 SW14      30.33F
DAYTON GENERAL SUNNY     61  38  42 SW10      30.34F
WILMINGTON     SUNNY     61  41  47 SW12      30.34F
$$

OHZ036-037-039>041-045>050-054>059-063>069-073>076-082>088-171800-
  CENTRAL AND SOUTHEAST OHIO

CITY           SKY/WX    TMP DP  RH WIND       PRES   REMARKS
COLUMBUS       SUNNY     62  41  46 SW9       30.33F
OSU AIRPORT    SUNNY     62  40  44 SW12      30.32F
BOLTON FIELD   SUNNY     63  39  42 SW10      30.34F
RICKENBACK AFB SUNNY     62  40  44 S7        30.33F
NEWARK         SUNNY     63  36  36 SW9       30.33F
MARION         SUNNY     63  38  39 SW14G23   30.31F
LANCASTER      SUNNY     61  40  45 W7        30.35F
ZANESVILLE     SUNNY     62  41  46 SW7       30.34F
NEW PHILLY     NOT AVBL
$$




USA.gov is the U.S. government's official web portal to all federal, state and local government web resources and services.